{"data":{"norad_id":43676,"intl_designator":"2018-084F","name":"KHALIFASAT","alt_names":[],"object_type":"PAYLOAD","status":"ACTIVE","operator":null,"country":"UAE","launch_date":"2018-10-29","launch_site_code":"TANSC","launch_vehicle":null,"mission":null,"orbit_class":"UNKNOWN","rcs_meters":null,"size_class":null,"mass_kg":null,"dimensions":null,"purposes":[],"wikipedia_slug":null,"has_3d_model":false,"image_url":null,"decayed_at":null,"tle_current":{"epoch":"2026-05-25T04:48:44.629920Z","epoch_age_seconds":50935,"freshness":"FRESH","line1":"1 43676U 18084F   26145.20051655  .00001049  00000+0  86864-4 0  9998","line2":"2 43676  98.0731 326.7101 0006941 165.8395 194.3024 15.01174692412324","mean_motion":15.01174692,"eccentricity":0.0006941,"inclination_deg":98.0731,"raan_deg":326.7101,"arg_perigee_deg":165.8395,"mean_anomaly_deg":194.3024,"bstar":8.6864e-5,"rev_number":41232,"period_min":95.924878541717,"perigee_km":558.45477769544,"apogee_km":568.09084279403,"semimajor_km":6941.4098102447,"source":"CELESTRAK","updated_at":"2026-05-25T13:37:55.866506Z"}}}